Location: ?????
(31.8092°N, 35.2590°E)
Time: 03:27:22
(UTC+00:00)

Cosmos 2360 Rocket - Pass Details

Date: 26 October 2021
Orbit: 832 x 846 km, 71.0° (Epoch: 07 December)

Event Time Altitude Azimuth Distance (km) Brightness Sun altitude
Exits shadow 01:14:33 12° 7° (N) 2,339 4.6 -33.7°
Maximum altitude 01:18:57 28° 63° (ENE) 1,528 4.0 -32.8°
Drops below altitude 10° 01:23:45 10° 121° (ESE) 2,459 5.2 -31.7°
Sets 01:26:31 0° 133° (SE) 3,389 5.9 -31.2°
